[[{"header":{"parameterUnit":"m.s-1","parameterCategory":2,"la1":30.2991,"la2":30.254,"lo1":-89.0895,"lo2":-89.0444,"dy":0.0017,"dx":0.0017,"nx":28,"ny":28,"refTime":"2025-03-01T03:00:00:Z","depth":"0","parameterNumber":2,"parameterNumberName":"U-component_of_CURRENTS"},"data":[0,0,0,0,0,0,0,0,0,0,0,0,0,0,0,0,0,0,0,0,0,0,0,0,0,0,0,0,0,0,0,0,0,0,0,0,0,0,0,0,0,0,0,0,0,0,0,0,0,0,0,0,0,0,0,0,0,0,-0.3034,-0.3037,0,-0.3204,-0.3205,-0.3206,-0.3202,-0.3201,-0.3199,-0.3198,-0.3236,-0.3238,-0.3241,0,0,0,0,0,0,0,0,0,0,0,0,0,-0.2738,-0.2742,-0.3034,-0.3037,-0.304,-0.3204,-0.3205,-0.3206,-0.3202,-0.32,-0.3199,-0.3197,-0.3236,-0.3238,-0.3241,0,0,0,0,0,0,0,0,0,0,0,0,0,-0.2873,-0.2743,-0.3033,-0.3065,-0.3071,-0.3204,-0.3205,-0.3207,-0.3202,-0.32,-0.3198,-0.3197,-0.3235,-0.3238,-0.3241,-0.3303,0,0,-0.3252,-0.3253,0,0,0,0,0,0,0,0,-0.2865,-0.2882,-0.3058,-0.3064,-0.307,-0.3189,-0.3116,-0.3236,-0.3203,-0.3141,-0.3198,-0.3196,-0.3217,-0.3222,-0.3245,-0.3304,-0.3306,-0.3252,-0.3254,-0.3256,-0.3256,0,0,0,0,0,0,0,-0.2855,-0.2875,-0.309,-0.3061,-0.3069,-0.3084,-0.3099,-0.3138,-0.3177,-0.3146,-0.3149,-0.3186,-0.3217,-0.3241,-0.3245,-0.3307,-0.3252,-0.3255,-0.3257,-0.3258,-0.3386,-0.3387,0,0,0,0,0,0,-0.2858,-0.2867,-0.3085,-0.3096,-0.2972,-0.3091,-0.3108,-0.3144,-0.318,-0.3188,-0.3187,-0.3185,-0.3237,-0.3241,-0.3247,-0.3284,-0.3256,-0.3259,-0.3261,-0.3385,-0.3386,-0.3388,0,0,0,0,0,0,-0.2851,-0.2875,-0.3078,-0.2993,-0.3021,-0.3099,-0.3139,-0.3149,-0.3172,-0.3215,-0.3217,-0.3202,-0.3235,-0.3242,-0.3282,-0.3286,-0.326,-0.3263,-0.3383,-0.3385,-0.3387,-0.3382,0,0,0,0,0,0,-0.2841,-0.2872,-0.2879,-0.2994,-0.3027,-0.3159,-0.3143,-0.3154,-0.3204,-0.3202,-0.3229,-0.323,-0.3234,-0.3277,-0.3285,-0.329,-0.3266,-0.3381,-0.3384,-0.3386,-0.338,-0.3384,-0.3386,0,0,0,0,0,-0.283,-0.2868,-0.2878,-0.2904,-0.3041,-0.3162,-0.3179,-0.3219,-0.3206,-0.3228,-0.324,-0.3229,-0.3298,-0.3281,-0.3291,-0.3297,-0.338,-0.3383,-0.3386,-0.3379,-0.3383,-0.3386,0,0,0,0,0,0,-0.2756,-0.2877,-0.2888,-0.2962,-0.3051,-0.3165,-0.32,-0.3226,-0.3258,-0.325,-0.3258,-0.3262,-0.3294,-0.3309,-0.3291,-0.3343,-0.3334,-0.3339,-0.3325,-0.3329,-0.3332,-0.3309,-0.3269,0,0,0,0,0,-0.2744,-0.2782,-0.2914,-0.2962,-0.3019,-0.3104,-0.3151,-0.3192,-0.3251,-0.3263,-0.328,-0.3298,-0.332,-0.3333,-0.3359,-0.3401,-0.3334,-0.3409,-0.3412,-0.3414,-0.3404,-0.3288,-0.3277,-0.3398,-0.3398,-0.3398,0,0,-0.2727,-0.2797,-0.2819,-0.2945,-0.3017,-0.3112,-0.3125,-0.3219,-0.3263,-0.3264,-0.3304,-0.3314,-0.3335,-0.3369,-0.3384,-0.3378,-0.3349,-0.3418,-0.3419,-0.3408,-0.3289,-0.3276,-0.3265,-0.34,-0.3399,-0.3399,0,0,-0.2755,-0.2786,-0.2852,-0.2931,-0.3058,-0.3112,-0.3141,-0.326,-0.3272,-0.3338,-0.3328,-0.3335,-0.3398,-0.3389,-0.3398,-0.3438,-0.3368,-0.3459,-0.3454,-0.3341,-0.3328,-0.3316,-0.3217,-0.3196,-0.3459,-0.3459,-0.3459,0,-0.2731,-0.2827,-0.2888,-0.299,-0.3044,-0.3114,-0.3203,-0.3247,-0.3344,-0.3334,-0.3349,-0.337,-0.3399,-0.3388,-0.3417,-0.3439,-0.3367,-0.3434,-0.3337,-0.3324,-0.3312,-0.3213,-0.319,-0.3459,-0.3459,-0.3459,-0.3459,0,-0.2826,-0.29,-0.2954,-0.3075,-0.3137,-0.3224,-0.331,-0.3337,-0.3352,-0.3374,-0.3367,-0.3389,-0.3383,-0.3406,-0.344,-0.3379,-0.3353,-0.3347,-0.3313,-0.3298,-0.3197,-0.3173,-0.3459,-0.3459,-0.3459,-0.3459,0,0,-0.2773,-0.2979,-0.2987,-0.3051,-0.3182,-0.3245,-0.3298,-0.335,-0.3341,-0.3384,-0.3345,-0.3396,-0.3367,-0.3376,-0.3384,-0.3319,-0.3199,-0.3313,-0.3307,-0.3188,-0.2941,-0.2893,-0.2862,-0.316,-0.3156,-0.3153,-0.2904,0,-0.2822,-0.2998,-0.3072,-0.3189,-0.3287,-0.3327,-0.3357,-0.3389,-0.3391,-0.3367,-0.3337,-0.3324,-0.3365,-0.3352,-0.329,-0.323,-0.3136,-0.3267,-0.2998,-0.299,-0.2925,-0.2832,-0.2737,-0.2504,-0.288,-0.2876,-0.2873,0,-0.2871,-0.2985,-0.3126,-0.3236,-0.3274,-0.3327,-0.3326,-0.3371,-0.3343,-0.3335,-0.3286,-0.3263,-0.3199,-0.3224,-0.3045,-0.3123,-0.3034,-0.2972,-0.296,-0.2896,-0.2896,-0.2583,-0.2445,-0.2425,-0.2835,-0.2838,-0.2841,0,-0.2784,-0.2987,-0.3076,-0.3131,-0.3287,-0.3299,-0.3338,-0.3341,-0.3332,-0.3294,-0.325,-0.317,-0.3105,-0.2986,-0.2904,-0.2951,-0.2678,-0.271,-0.2562,-0.2558,-0.2415,-0.2405,-0.2198,-0.2528,-0.2529,-0.2529,-0.253,0,-0.2779,-0.2844,-0.3049,-0.3104,-0.3154,-0.3264,-0.326,-0.3282,-0.3268,-0.3215,-0.3214,-0.3124,-0.3038,-0.2895,-0.2828,-0.2612,-0.2592,-0.2521,-0.247,-0.2416,-0.241,-0.234,-0.2385,-0.252,-0.2522,-0.2524,-0.2525,0,-0.266,-0.2808,-0.2922,-0.3093,-0.3129,-0.3155,-0.3221,-0.3205,-0.3218,-0.3136,-0.3113,-0.3036,-0.2852,-0.2747,-0.2539,-0.2484,-0.2255,-0.2239,-0.22,-0.215,-0.2019,-0.2069,-0.1808,-0.1762,-0.201,-0.2007,-0.2005,0,-0.2618,-0.2675,-0.2868,-0.292,-0.2997,-0.3063,-0.3081,-0.3152,-0.3133,-0.3063,-0.2995,-0.283,-0.2673,-0.2375,-0.2241,-0.2037,-0.2067,-0.1858,-0.1937,-0.1957,-0.1974,-0.2027,-0.2013,-0.174,-0.1736,-0.1732,-0.1729,0,-0.251,-0.2573,-0.2673,-0.2793,-0.2853,-0.2903,-0.2946,-0.2918,-0.2956,-0.288,-0.2733,-0.2606,-0.236,-0.2103,-0.19,-0.1793,-0.1827,-0.1777,-0.177,-0.1712,-0.1774,-0.1725,-0.1993,-0.1696,-0.17,-0.1702,-0.1704,-0.1705,-0.2385,-0.2415,-0.2545,-0.2631,-0.2707,-0.2705,-0.265,-0.2678,-0.2598,-0.244,-0.2447,-0.2214,-0.2037,-0.1724,-0.1619,-0.1444,-0.1542,-0.1404,-0.1448,-0.1489,-0.1484,-0.1703,-0.1386,-0.1388,-0.1389,-0.139,-0.1391,0,-0.2204,-0.227,-0.2364,-0.2456,-0.2451,-0.2546,-0.252,-0.2413,-0.2246,-0.2162,-0.2004,-0.1773,-0.1534,-0.1413,-0.1229,-0.115,-0.1153,-0.1128,-0.1175,-0.1166,-0.1291,-0.1325,-0.1013,-0.1013,-0.1013,-0.1013,-0.1013,-0.1013,-0.2118,-0.2125,-0.2197,-0.2174,-0.2217,-0.2105,-0.2037,-0.1907,-0.1811,-0.1551,-0.142,-0.1368,-0.1276,-0.1225,-0.1065,-0.1004,-0.1007,-0.0958,-0.1012,-0.1128,-0.1158,-0.1188,-0.1227,-0.0899,-0.0899,-0.0836,-0.0836,-0.0835]},{"header":{"parameterUnit":"m.s-1","parameterCategory":2,"la1":30.2991,"la2":30.254,"lo1":-89.0895,"lo2":-89.0444,"dy":0.0017,"dx":0.0017,"nx":28,"ny":28,"refTime":"2025-03-01T03:00:00:Z","depth":"0","parameterNumber":3,"parameterNumberName":"V-component_of_CURRENTS"},"data":[0,0,0,0,0,0,0,0,0,0,0,0,0,0,0,0,0,0,0,0,0,0,0,0,0,0,0,0,0,0,0,0,0,0,0,0,0,0,0,0,0,0,0,0,0,0,0,0,0,0,0,0,0,0,0,0,0,0,-0.0558,-0.0558,0,-0.0497,-0.0495,-0.0494,-0.0428,-0.0428,-0.0428,-0.0427,-0.0287,-0.0284,-0.0281,0,0,0,0,0,0,0,0,0,0,0,0,0,-0.0497,-0.0498,-0.0558,-0.0558,-0.0557,-0.0497,-0.0495,-0.0494,-0.0428,-0.0428,-0.0427,-0.0427,-0.0288,-0.0284,-0.028,0,0,0,0,0,0,0,0,0,0,0,0,0,-0.0483,-0.0499,-0.0558,-0.0521,-0.0518,-0.0497,-0.0495,-0.0494,-0.0429,-0.0428,-0.0427,-0.0427,-0.029,-0.0285,-0.028,-0.0262,0,0,-0.0265,-0.0263,0,0,0,0,0,0,0,0,-0.0484,-0.0485,-0.0527,-0.0524,-0.052,-0.0474,-0.0423,-0.0414,-0.0429,-0.0457,-0.0427,-0.0426,-0.0347,-0.0337,-0.032,-0.0256,-0.025,-0.0264,-0.0261,-0.0259,-0.0258,0,0,0,0,0,0,0,-0.0485,-0.0486,-0.0528,-0.0527,-0.0523,-0.0467,-0.0465,-0.042,-0.04,-0.0454,-0.0451,-0.0453,-0.0343,-0.0325,-0.0316,-0.0247,-0.0264,-0.026,-0.0257,-0.0255,-0.0132,-0.0132,0,0,0,0,0,0,-0.0512,-0.0489,-0.053,-0.0527,-0.0506,-0.047,-0.0467,-0.0485,-0.0402,-0.0391,-0.0454,-0.045,-0.0334,-0.0322,-0.0311,-0.027,-0.0259,-0.0254,-0.0252,-0.0132,-0.0132,-0.0132,0,0,0,0,0,0,-0.0511,-0.0517,-0.0532,-0.0509,-0.0508,-0.0473,-0.0493,-0.0484,-0.047,-0.0404,-0.039,-0.0449,-0.0333,-0.0318,-0.0278,-0.0265,-0.0252,-0.0248,-0.0133,-0.0132,-0.0132,-0.0198,0,0,0,0,0,0,-0.051,-0.0517,-0.053,-0.0512,-0.0511,-0.0528,-0.0494,-0.0484,-0.0475,-0.047,-0.0396,-0.0382,-0.0331,-0.0286,-0.0273,-0.0258,-0.0244,-0.0133,-0.0132,-0.0132,-0.0197,-0.02,-0.0203,0,0,0,0,0,-0.0508,-0.0541,-0.0532,-0.0536,-0.0534,-0.0529,-0.0523,-0.049,-0.0476,-0.0473,-0.0425,-0.0384,-0.0273,-0.0283,-0.0267,-0.025,-0.0133,-0.0133,-0.0132,-0.0195,-0.02,-0.0203,0,0,0,0,0,0,-0.0522,-0.0537,-0.0527,-0.0562,-0.0549,-0.052,-0.0522,-0.05,-0.0461,-0.0457,-0.0388,-0.0371,-0.0331,-0.0285,-0.0297,-0.0212,-0.0193,-0.0189,-0.0246,-0.0249,-0.0253,-0.0234,-0.024,0,0,0,0,0,-0.0534,-0.056,-0.0555,-0.058,-0.0582,-0.0552,-0.0545,-0.0527,-0.0496,-0.0478,-0.0426,-0.0367,-0.0316,-0.0282,-0.0234,-0.0191,-0.0137,-0.0167,-0.0171,-0.0174,-0.0148,-0.0054,-0.0047,-0.013,-0.013,-0.013,0,0,-0.0545,-0.0557,-0.057,-0.0583,-0.0572,-0.0577,-0.0545,-0.0548,-0.0532,-0.0469,-0.0431,-0.0386,-0.0311,-0.0264,-0.0239,-0.0222,-0.0133,-0.0173,-0.0177,-0.0147,-0.0053,-0.0044,-0.0037,-0.0129,-0.0129,-0.0129,0,0,-0.059,-0.0595,-0.0634,-0.0628,-0.0628,-0.0602,-0.061,-0.0586,-0.0555,-0.0525,-0.047,-0.0411,-0.0346,-0.0273,-0.0232,-0.0223,-0.0164,-0.0218,-0.0205,-0.0117,-0.0109,-0.0101,-0.0071,-0.0059,-0.0208,-0.0208,-0.0208,0,-0.0601,-0.0649,-0.0639,-0.0669,-0.066,-0.0621,-0.0638,-0.0604,-0.0562,-0.0519,-0.0522,-0.0387,-0.0338,-0.0241,-0.0241,-0.0227,-0.019,-0.0201,-0.0121,-0.0111,-0.0102,-0.0072,-0.0059,-0.0211,-0.0211,-0.021,-0.021,0,-0.0674,-0.0699,-0.0721,-0.0737,-0.0722,-0.0733,-0.069,-0.0656,-0.0616,-0.0564,-0.0477,-0.0405,-0.031,-0.0296,-0.0267,-0.0171,-0.0176,-0.0149,-0.0113,-0.0098,-0.0068,-0.0053,-0.0216,-0.0215,-0.0214,-0.0213,0,0,-0.0723,-0.0765,-0.0769,-0.0774,-0.0757,-0.0749,-0.0713,-0.065,-0.0592,-0.0541,-0.0454,-0.0374,-0.0317,-0.0265,-0.0213,-0.0135,-0.0069,-0.012,-0.0114,-0.0095,0.0086,0.0062,0.0076,-0.0032,-0.0028,-0.0026,0.0061,0,-0.0776,-0.0847,-0.0837,-0.0853,-0.0875,-0.0805,-0.0757,-0.0684,-0.0606,-0.0508,-0.0407,-0.0317,-0.031,-0.0259,-0.0183,-0.0084,-0.0023,-0.0097,0.0075,0.008,0.0055,0.0097,0.0107,0.0185,0.0076,0.0079,0.0081,0,-0.085,-0.0879,-0.0933,-0.0893,-0.0889,-0.0878,-0.0763,-0.0714,-0.0563,-0.0494,-0.0382,-0.0297,-0.0173,-0.0172,0.0002,-0.005,0.0014,0.0078,0.0083,0.0109,0.0088,0.0165,0.0218,0.0317,0.0105,0.0103,0.0101,0,-0.0901,-0.0929,-0.0968,-0.0967,-0.0927,-0.0901,-0.0848,-0.0714,-0.063,-0.0477,-0.0391,-0.0246,-0.0155,-0.0045,0.0061,0.0045,0.0241,0.0241,0.0275,0.0271,0.0344,0.0341,0.0521,0.0372,0.0372,0.0372,0.0372,0,-0.0965,-0.0985,-0.0999,-0.1023,-0.1004,-0.0948,-0.0869,-0.079,-0.0632,-0.0515,-0.0391,-0.0273,-0.0113,0.0012,0.0088,0.022,0.0261,0.0297,0.0315,0.0312,0.0306,0.0446,0.0481,0.0375,0.0374,0.0374,0.0373,0,-0.1027,-0.1047,-0.1085,-0.1064,-0.1048,-0.1035,-0.0906,-0.0819,-0.0684,-0.0527,-0.0474,-0.0269,-0.0116,0.0015,0.0204,0.026,0.0443,0.0412,0.0361,0.0372,0.0488,0.0516,0.072,0.078,0.0482,0.0482,0.0482,0,-0.1068,-0.1108,-0.1132,-0.1135,-0.1134,-0.1085,-0.1018,-0.0873,-0.0766,-0.0524,-0.0445,-0.0255,-0.0123,0.0114,0.0258,0.0393,0.0471,0.0481,0.0471,0.0521,0.0567,0.0583,0.062,0.0519,0.052,0.052,0.0521,0,-0.1126,-0.1149,-0.1182,-0.1201,-0.1175,-0.1105,-0.1008,-0.0932,-0.073,-0.0607,-0.0422,-0.0307,-0.006,0.012,0.0297,0.0382,0.0555,0.0492,0.0601,0.0669,0.065,0.0704,0.0386,0.0524,0.0524,0.0524,0.0524,0.0523,-0.1155,-0.1197,-0.1241,-0.1244,-0.1207,-0.1117,-0.1052,-0.093,-0.0791,-0.0585,-0.0467,-0.029,0.0008,0.0266,0.0367,0.0606,0.0594,0.068,0.0722,0.0741,0.0785,0.0435,0.0555,0.0555,0.0555,0.0555,0.0555,0,-0.1171,-0.1218,-0.1249,-0.1244,-0.1191,-0.1157,-0.102,-0.0935,-0.0809,-0.0637,-0.0496,-0.0156,0.0099,0.0372,0.0708,0.0837,0.0879,0.091,0.0971,0.1008,0.0764,0.0751,0.085,0.085,0.085,0.085,0.085,0.085,-0.118,-0.1236,-0.1263,-0.1221,-0.1192,-0.1094,-0.1022,-0.0925,-0.0795,-0.0561,-0.0352,-0.0182,0.0243,0.0761,0.1067,0.1095,0.1229,0.1204,0.128,0.1132,0.1115,0.1098,0.1098,0.1269,0.1269,0.1519,0.1521,0.1523]}],[{"header":{"parameterUnit":"m.s-1","parameterCategory":2,"la1":30.2991,"la2":30.254,"lo1":-89.0895,"lo2":-89.0444,"dy":0.0017,"dx":0.0017,"nx":28,"ny":28,"refTime":"2025-03-01T03:00:00:Z","depth":"2","parameterNumber":2,"parameterNumberName":"U-component_of_CURRENTS"},"data":[0,0,0,0,0,0,0,0,0,0,0,0,0,0,0,0,0,0,0,0,0,0,0,0,0,0,0,0,0,0,0,0,0,0,0,0,0,0,0,0,0,0,0,0,0,0,0,0,0,0,0,0,0,0,0,0,0,0,-0.2436,-0.2436,0,-0.254,-0.2541,-0.2543,-0.2547,-0.2545,-0.2544,-0.2542,-0.2612,-0.2616,-0.2619,0,0,0,0,0,0,0,0,0,0,0,0,0,-0.2309,-0.2311,-0.2435,-0.2437,-0.2438,-0.254,-0.2541,-0.2543,-0.2547,-0.2545,-0.2543,-0.2542,-0.2611,-0.2615,-0.2619,0,0,0,0,0,0,0,0,0,0,0,0,0,-0.2386,-0.2311,-0.2435,-0.245,-0.2452,-0.2539,-0.2542,-0.2544,-0.2547,-0.2545,-0.2543,-0.2541,-0.261,-0.2615,-0.262,-0.2696,0,0,-0.2635,-0.2637,0,0,0,0,0,0,0,0,-0.2381,-0.2391,-0.2447,-0.2449,-0.2451,-0.2525,-0.2522,-0.2592,-0.2548,-0.2514,-0.2542,-0.254,-0.258,-0.2587,-0.2617,-0.2699,-0.2702,-0.2635,-0.2638,-0.264,-0.2642,0,0,0,0,0,0,0,-0.2376,-0.2387,-0.248,-0.2448,-0.2451,-0.2474,-0.2483,-0.2536,-0.256,-0.2517,-0.2517,-0.2525,-0.2581,-0.2612,-0.2618,-0.2703,-0.2635,-0.2639,-0.2642,-0.2644,-0.2835,-0.2837,0,0,0,0,0,0,-0.2357,-0.2382,-0.2476,-0.2483,-0.2407,-0.2478,-0.2487,-0.2506,-0.256,-0.2566,-0.2526,-0.2524,-0.2605,-0.2612,-0.262,-0.2695,-0.264,-0.2645,-0.2648,-0.2833,-0.2836,-0.2838,0,0,0,0,0,0,-0.2354,-0.2365,-0.2472,-0.2431,-0.2446,-0.2482,-0.2504,-0.2509,-0.2544,-0.2567,-0.2572,-0.2554,-0.2603,-0.2613,-0.2672,-0.2698,-0.2647,-0.2652,-0.2831,-0.2834,-0.2837,-0.2856,0,0,0,0,0,0,-0.235,-0.2364,-0.2374,-0.243,-0.2448,-0.2527,-0.2506,-0.2513,-0.255,-0.2549,-0.2593,-0.2597,-0.2602,-0.2665,-0.2677,-0.2704,-0.2655,-0.2828,-0.2832,-0.2836,-0.2853,-0.286,-0.2865,0,0,0,0,0,-0.2346,-0.2365,-0.2374,-0.2386,-0.246,-0.2529,-0.2541,-0.256,-0.2554,-0.2581,-0.2606,-0.2596,-0.2698,-0.2672,-0.2685,-0.2713,-0.2826,-0.2831,-0.2835,-0.285,-0.2858,-0.2865,0,0,0,0,0,0,-0.2319,-0.2369,-0.238,-0.2415,-0.2469,-0.2528,-0.2545,-0.2574,-0.2621,-0.2608,-0.2633,-0.264,-0.2699,-0.2716,-0.2685,-0.2782,-0.2758,-0.2766,-0.2765,-0.2773,-0.2779,-0.2747,-0.2659,0,0,0,0,0,-0.2319,-0.2341,-0.2403,-0.2431,-0.2453,-0.2507,-0.2536,-0.2557,-0.2603,-0.2621,-0.2657,-0.2691,-0.2735,-0.2757,-0.2797,-0.2862,-0.2796,-0.2889,-0.2895,-0.29,-0.2885,-0.2782,-0.2775,-0.2854,-0.2853,-0.2853,0,0,-0.2316,-0.2345,-0.2358,-0.2426,-0.246,-0.2515,-0.2519,-0.2565,-0.2614,-0.2623,-0.2692,-0.272,-0.2759,-0.2818,-0.2846,-0.2831,-0.2849,-0.2906,-0.2909,-0.2892,-0.2786,-0.2777,-0.2769,-0.2857,-0.2856,-0.2856,0,0,-0.2324,-0.2347,-0.2372,-0.2421,-0.2476,-0.2517,-0.2535,-0.2608,-0.2635,-0.2718,-0.2724,-0.2757,-0.2854,-0.2862,-0.2885,-0.2956,-0.2886,-0.2987,-0.2992,-0.2893,-0.2883,-0.2874,-0.279,-0.2773,-0.2988,-0.2988,-0.2988,0,-0.2318,-0.2361,-0.2393,-0.2439,-0.2472,-0.2521,-0.2568,-0.2623,-0.2709,-0.2717,-0.2738,-0.2819,-0.2866,-0.2893,-0.2935,-0.2964,-0.2898,-0.2955,-0.2893,-0.2883,-0.2873,-0.2788,-0.2769,-0.2989,-0.2989,-0.2989,-0.2989,0,-0.2358,-0.2394,-0.2411,-0.248,-0.2527,-0.2573,-0.2644,-0.2692,-0.2733,-0.2765,-0.2803,-0.2854,-0.2883,-0.2925,-0.2971,-0.2945,-0.2917,-0.2906,-0.2856,-0.2864,-0.2778,-0.2757,-0.2991,-0.2991,-0.299,-0.299,0,0,-0.2333,-0.2421,-0.2426,-0.2454,-0.2548,-0.2585,-0.266,-0.2718,-0.273,-0.28,-0.2804,-0.2899,-0.2886,-0.2912,-0.2944,-0.2896,-0.2811,-0.2891,-0.2885,-0.2777,-0.2586,-0.2537,-0.251,-0.2772,-0.2769,-0.2766,-0.2555,0,-0.2351,-0.2416,-0.2469,-0.2536,-0.257,-0.2634,-0.2694,-0.2744,-0.2782,-0.2803,-0.2815,-0.2842,-0.2892,-0.2905,-0.2863,-0.283,-0.2757,-0.2869,-0.2621,-0.2614,-0.2542,-0.2485,-0.2352,-0.2149,-0.2534,-0.2531,-0.2528,0,-0.2367,-0.2404,-0.2463,-0.2533,-0.2553,-0.2613,-0.2661,-0.2727,-0.2757,-0.2772,-0.2765,-0.2778,-0.2763,-0.2795,-0.266,-0.2725,-0.2661,-0.2617,-0.2606,-0.2532,-0.2526,-0.2205,-0.2097,-0.2493,-0.2496,-0.2499,-0.2501,0,-0.2298,-0.2394,-0.2426,-0.246,-0.2558,-0.2593,-0.2655,-0.2701,-0.272,-0.2741,-0.2724,-0.2689,-0.2667,-0.2574,-0.2537,-0.2578,-0.2357,-0.2382,-0.2256,-0.2253,-0.2076,-0.2063,-0.2234,-0.2234,-0.2235,-0.2236,-0.2236,0,-0.2283,-0.2308,-0.2399,-0.2419,-0.2452,-0.2548,-0.2567,-0.2625,-0.2661,-0.2632,-0.2693,-0.2625,-0.2607,-0.251,-0.2466,-0.229,-0.2274,-0.2224,-0.2177,-0.2087,-0.2077,-0.2335,-0.235,-0.2228,-0.2229,-0.2231,-0.2232,0,-0.2197,-0.2265,-0.2297,-0.239,-0.2419,-0.2444,-0.2526,-0.2517,-0.2586,-0.255,-0.2554,-0.254,-0.2411,-0.2378,-0.2221,-0.2173,-0.2037,-0.1977,-0.1895,-0.1843,-0.2016,-0.2035,-0.1783,-0.1779,-0.1776,-0.1773,-0.1771,0,-0.2159,-0.2164,-0.2239,-0.2242,-0.229,-0.2339,-0.2348,-0.2456,-0.2446,-0.2457,-0.2409,-0.2336,-0.2223,-0.201,-0.1924,-0.1785,-0.1889,-0.1589,-0.165,-0.198,-0.196,-0.1985,-0.2007,-0.1423,-0.1418,-0.1414,-0.1411,0,-0.2062,-0.2084,-0.2097,-0.2095,-0.2116,-0.2141,-0.2187,-0.2166,-0.225,-0.2216,-0.2123,-0.2051,-0.1915,-0.1705,-0.16,-0.1513,-0.1615,-0.1502,-0.1785,-0.1592,-0.1632,-0.1618,-0.1652,-0.1375,-0.1378,-0.1381,-0.1383,-0.1385,-0.1959,-0.1931,-0.1926,-0.1917,-0.1936,-0.1924,-0.1871,-0.1899,-0.1849,-0.1784,-0.1811,-0.1666,-0.1639,-0.1385,-0.1275,-0.1222,-0.1343,-0.1286,-0.1301,-0.1319,-0.1349,-0.1384,-0.1086,-0.1088,-0.1089,-0.1091,-0.1092,0,-0.1807,-0.178,-0.1748,-0.1718,-0.1651,-0.1745,-0.1722,-0.1633,-0.15,-0.1499,-0.1416,-0.122,-0.1084,-0.1086,-0.0943,-0.0907,-0.0928,-0.0869,-0.0903,-0.0939,-0.097,-0.0986,-0.0624,-0.0622,-0.0621,-0.062,0,0,-0.172,-0.1627,-0.1603,-0.1438,-0.1415,-0.1296,-0.1248,-0.1168,-0.1137,-0.0992,-0.094,-0.1008,-0.104,-0.0829,-0.0777,-0.0677,-0.0805,-0.064,-0.1015,-0.109,-0.112,-0.1205,-0.1267,0,0,0,0,0]},{"header":{"parameterUnit":"m.s-1","parameterCategory":2,"la1":30.2991,"la2":30.254,"lo1":-89.0895,"lo2":-89.0444,"dy":0.0017,"dx":0.0017,"nx":28,"ny":28,"refTime":"2025-03-01T03:00:00:Z","depth":"2","parameterNumber":3,"parameterNumberName":"V-component_of_CURRENTS"},"data":[0,0,0,0,0,0,0,0,0,0,0,0,0,0,0,0,0,0,0,0,0,0,0,0,0,0,0,0,0,0,0,0,0,0,0,0,0,0,0,0,0,0,0,0,0,0,0,0,0,0,0,0,0,0,0,0,0,0,-0.044,-0.044,0,-0.0408,-0.0407,-0.0407,-0.036,-0.0359,-0.0359,-0.0358,-0.0242,-0.0239,-0.0236,0,0,0,0,0,0,0,0,0,0,0,0,0,-0.0381,-0.0383,-0.044,-0.044,-0.044,-0.0408,-0.0407,-0.0407,-0.036,-0.0359,-0.0359,-0.0358,-0.0242,-0.0239,-0.0236,0,0,0,0,0,0,0,0,0,0,0,0,0,-0.0381,-0.0383,-0.044,-0.0415,-0.0413,-0.0408,-0.0407,-0.0406,-0.036,-0.0359,-0.0358,-0.0358,-0.0243,-0.024,-0.0236,-0.0228,0,0,-0.0224,-0.0222,0,0,0,0,0,0,0,0,-0.0381,-0.0383,-0.0419,-0.0417,-0.0414,-0.039,-0.0344,-0.0344,-0.036,-0.0377,-0.0358,-0.0357,-0.0286,-0.0278,-0.0271,-0.0223,-0.0218,-0.0224,-0.0221,-0.0219,-0.0218,0,0,0,0,0,0,0,-0.0381,-0.0383,-0.0424,-0.0419,-0.0416,-0.0378,-0.0377,-0.0343,-0.0332,-0.0375,-0.0373,-0.0374,-0.0283,-0.0275,-0.0268,-0.0216,-0.0224,-0.022,-0.0218,-0.0216,-0.0129,-0.0129,0,0,0,0,0,0,-0.0397,-0.0384,-0.0425,-0.0424,-0.0399,-0.038,-0.0379,-0.0396,-0.0334,-0.0326,-0.0375,-0.0372,-0.0282,-0.0272,-0.0263,-0.0238,-0.022,-0.0216,-0.0214,-0.0129,-0.0129,-0.0129,0,0,0,0,0,0,-0.0396,-0.0401,-0.0427,-0.0404,-0.0405,-0.0383,-0.0401,-0.0396,-0.039,-0.0336,-0.0324,-0.0376,-0.0281,-0.0269,-0.0243,-0.0234,-0.0214,-0.0211,-0.0129,-0.0129,-0.0129,-0.0196,0,0,0,0,0,0,-0.0395,-0.0402,-0.0415,-0.0406,-0.0407,-0.0434,-0.0402,-0.0396,-0.0394,-0.039,-0.0333,-0.0321,-0.0279,-0.0249,-0.0239,-0.0228,-0.0208,-0.0129,-0.0129,-0.0129,-0.0193,-0.0198,-0.0202,0,0,0,0,0,-0.0393,-0.0423,-0.0416,-0.042,-0.0428,-0.0436,-0.0433,-0.041,-0.0395,-0.04,-0.0362,-0.0323,-0.0241,-0.0247,-0.0235,-0.0222,-0.0129,-0.0129,-0.0129,-0.0192,-0.0197,-0.0202,0,0,0,0,0,0,-0.0407,-0.0421,-0.0413,-0.0446,-0.0444,-0.0429,-0.0434,-0.042,-0.0395,-0.0389,-0.0332,-0.0319,-0.0292,-0.0251,-0.0259,-0.0196,-0.0174,-0.0172,-0.0226,-0.0231,-0.0235,-0.0228,-0.0204,0,0,0,0,0,-0.0417,-0.0441,-0.0443,-0.0467,-0.047,-0.0453,-0.0451,-0.044,-0.0421,-0.041,-0.0369,-0.0321,-0.0283,-0.0255,-0.022,-0.0189,-0.014,-0.017,-0.0174,-0.0178,-0.0164,-0.0095,-0.0092,-0.0129,-0.0129,-0.0129,0,0,-0.0429,-0.044,-0.0453,-0.0471,-0.0465,-0.0482,-0.045,-0.0459,-0.046,-0.04,-0.0384,-0.0343,-0.0282,-0.025,-0.0232,-0.0213,-0.0145,-0.0178,-0.0182,-0.0165,-0.0095,-0.0091,-0.0088,-0.0129,-0.0129,-0.0129,0,0,-0.0471,-0.0476,-0.051,-0.0515,-0.0521,-0.0507,-0.0515,-0.0504,-0.0484,-0.0473,-0.0423,-0.0376,-0.0328,-0.027,-0.0237,-0.024,-0.018,-0.0232,-0.0235,-0.0169,-0.0166,-0.0161,-0.0113,-0.0104,-0.0222,-0.0222,-0.0223,0,-0.0482,-0.0528,-0.0519,-0.0552,-0.0558,-0.0525,-0.0555,-0.0534,-0.0511,-0.0485,-0.0477,-0.0376,-0.033,-0.0262,-0.0262,-0.0247,-0.021,-0.0225,-0.0175,-0.017,-0.0164,-0.0115,-0.0104,-0.0226,-0.0225,-0.0225,-0.0225,0,-0.0552,-0.0582,-0.0602,-0.0629,-0.0631,-0.0653,-0.0628,-0.0611,-0.0581,-0.0548,-0.0485,-0.0417,-0.0346,-0.0326,-0.0296,-0.0228,-0.0217,-0.02,-0.0164,-0.0165,-0.0113,-0.0101,-0.023,-0.0229,-0.0228,-0.0227,0,0,-0.0594,-0.0643,-0.0649,-0.0668,-0.0674,-0.0683,-0.0672,-0.0645,-0.0616,-0.0571,-0.0517,-0.0446,-0.0389,-0.0346,-0.0288,-0.0223,-0.0164,-0.02,-0.0195,-0.0156,-0.0033,-0.0045,-0.0033,-0.0145,-0.0143,-0.0141,-0.0019,0,-0.0648,-0.0724,-0.0726,-0.0773,-0.0805,-0.0764,-0.0751,-0.0712,-0.0658,-0.0593,-0.0495,-0.0428,-0.0402,-0.0354,-0.029,-0.0192,-0.0132,-0.0199,-0.0033,-0.0028,-0.0042,-0.0018,-0.0032,0.0074,-0.0006,-0.0004,-0.0002,0,-0.0719,-0.0756,-0.0824,-0.0836,-0.0842,-0.0856,-0.0807,-0.0788,-0.0683,-0.0633,-0.054,-0.0457,-0.0344,-0.0322,-0.0158,-0.0207,-0.0125,-0.0053,-0.0046,-0.002,-0.0016,0.0067,0.01,0.0019,0.0018,0.0016,0.0015,0,-0.0762,-0.0819,-0.087,-0.0884,-0.0893,-0.0894,-0.0879,-0.0802,-0.076,-0.0642,-0.0582,-0.0454,-0.0362,-0.0252,-0.0116,-0.013,0.0061,0.0065,0.0133,0.0132,0.0176,0.0175,0.0187,0.0187,0.0187,0.0186,0.0186,0,-0.0826,-0.0864,-0.0897,-0.093,-0.0958,-0.094,-0.0927,-0.0883,-0.0788,-0.072,-0.0602,-0.0515,-0.0338,-0.0207,-0.0107,0.0046,0.0069,0.0146,0.0172,0.0148,0.0144,0.0143,0.0137,0.0191,0.019,0.0189,0.0188,0,-0.0875,-0.0903,-0.0961,-0.0985,-0.099,-0.1009,-0.0978,-0.0948,-0.0856,-0.0756,-0.0711,-0.0538,-0.0373,-0.0208,-0.0006,0.0068,0.0208,0.0255,0.0204,0.0221,0.0233,0.0221,0.0355,0.0355,0.0356,0.0357,0.0357,0,-0.091,-0.095,-0.1005,-0.1033,-0.1052,-0.1066,-0.106,-0.0995,-0.0944,-0.0774,-0.0718,-0.0528,-0.0393,-0.0124,0.0051,0.0238,0.0242,0.0328,0.0306,0.0243,0.0255,0.0242,0.023,0.0337,0.0338,0.0338,0.0338,0,-0.0962,-0.0983,-0.1025,-0.1081,-0.1108,-0.1117,-0.1099,-0.1067,-0.0952,-0.0865,-0.0718,-0.0599,-0.0324,-0.0116,0.0123,0.0225,0.0291,0.0337,0.0323,0.0277,0.0232,0.0241,0.0229,0.034,0.034,0.0339,0.0339,0.0339,-0.0985,-0.1023,-0.107,-0.1115,-0.1144,-0.1138,-0.112,-0.1071,-0.0995,-0.0814,-0.0733,-0.0526,-0.0331,0.0019,0.0171,0.0332,0.0326,0.0375,0.0373,0.0371,0.0328,0.0284,0.0393,0.0394,0.0394,0.0394,0.0394,0,-0.1001,-0.1038,-0.1089,-0.1131,-0.1141,-0.1152,-0.1112,-0.1053,-0.096,-0.0807,-0.0665,-0.0419,-0.0196,0.0017,0.0264,0.0386,0.0386,0.0413,0.039,0.0387,0.0385,0.034,0.0411,0.0412,0.0412,0.0412,0,0,-0.1009,-0.1059,-0.1081,-0.1101,-0.1116,-0.1087,-0.1054,-0.0976,-0.0858,-0.0701,-0.0548,-0.0383,-0.0156,0.002,0.0175,0.0308,0.0318,0.0324,0.0296,0.0247,0.0243,0.0349,0.0275,0,0,0,0,0]}],[{"header":{"parameterUnit":"m.s-1","parameterCategory":2,"la1":30.2991,"la2":30.254,"lo1":-89.0895,"lo2":-89.0444,"dy":0.0017,"dx":0.0017,"nx":28,"ny":28,"refTime":"2025-03-01T03:00:00:Z","depth":"4","parameterNumber":2,"parameterNumberName":"U-component_of_CURRENTS"},"data":[0,0,0,0,0,0,0,0,0,0,0,0,0,0,0,0,0,0,0,0,0,0,0,0,0,0,0,0,0,0,0,0,0,0,0,0,0,0,0,0,0,0,0,0,0,0,0,0,0,0,0,0,0,0,0,0,0,0,-0.1571,-0.157,0,-0.1505,-0.1504,-0.1504,-0.1497,-0.1498,-0.1498,-0.1499,-0.157,-0.1572,-0.1573,0,0,0,0,0,0,0,0,0,0,0,0,0,-0.1559,-0.156,-0.1571,-0.157,-0.1569,-0.1505,-0.1504,-0.1504,-0.1497,-0.1498,-0.1498,-0.1499,-0.157,-0.1572,-0.1573,0,0,0,0,0,0,0,0,0,0,0,0,0,-0.1538,-0.156,-0.1571,-0.1556,-0.1554,-0.1505,-0.1504,-0.1503,-0.1497,-0.1498,-0.1499,-0.1499,-0.1569,-0.1571,-0.1574,-0.1574,0,0,-0.158,-0.1581,0,0,0,0,0,0,0,0,-0.154,-0.1539,-0.1559,-0.1557,-0.1554,-0.1508,-0.1526,-0.1533,-0.1497,-0.1522,-0.1499,-0.1499,-0.156,-0.1563,-0.1551,-0.1577,-0.158,-0.1581,-0.1582,-0.1583,-0.1584,0,0,0,0,0,0,0,-0.1541,-0.1541,-0.1548,-0.1558,-0.1555,-0.1506,-0.1506,-0.1526,-0.1543,-0.1519,-0.1518,-0.1506,-0.156,-0.1549,-0.1553,-0.1582,-0.1581,-0.1583,-0.1584,-0.1585,-0.1677,-0.1678,0,0,0,0,0,0,-0.1551,-0.1543,-0.155,-0.1545,-0.1545,-0.1507,-0.1506,-0.1524,-0.1539,-0.154,-0.1506,-0.1506,-0.1544,-0.155,-0.1556,-0.1614,-0.1583,-0.1585,-0.1586,-0.1676,-0.1677,-0.1678,0,0,0,0,0,0,-0.1551,-0.1553,-0.1552,-0.1538,-0.1535,-0.1507,-0.1527,-0.1522,-0.1535,-0.1527,-0.1531,-0.1525,-0.1545,-0.1552,-0.1586,-0.1615,-0.1586,-0.1588,-0.1675,-0.1676,-0.1678,-0.1696,0,0,0,0,0,0,-0.1552,-0.1554,-0.1581,-0.154,-0.1536,-0.1541,-0.1526,-0.1521,-0.1523,-0.1524,-0.1544,-0.1549,-0.1546,-0.1582,-0.1588,-0.1618,-0.159,-0.1673,-0.1675,-0.1677,-0.1694,-0.1698,-0.1702,0,0,0,0,0,-0.1552,-0.1573,-0.1583,-0.1583,-0.1571,-0.1542,-0.1536,-0.1517,-0.1524,-0.1532,-0.1542,-0.155,-0.16,-0.1584,-0.1591,-0.1622,-0.1672,-0.1675,-0.1677,-0.1692,-0.1697,-0.1702,0,0,0,0,0,0,-0.1573,-0.1573,-0.1583,-0.1605,-0.1587,-0.154,-0.1539,-0.1534,-0.1545,-0.1554,-0.1558,-0.1564,-0.1618,-0.1612,-0.1595,-0.1656,-0.1641,-0.1645,-0.165,-0.1655,-0.1659,-0.164,-0.1592,0,0,0,0,0,-0.1593,-0.1621,-0.1599,-0.1618,-0.1612,-0.1586,-0.1577,-0.1565,-0.1558,-0.1563,-0.1578,-0.1597,-0.1628,-0.1634,-0.1665,-0.1683,-0.1659,-0.171,-0.1714,-0.1717,-0.1706,-0.1703,-0.1704,-0.1687,-0.1687,-0.1687,0,0,-0.1605,-0.1609,-0.1624,-0.1626,-0.1611,-0.1597,-0.1584,-0.1573,-0.157,-0.1572,-0.1595,-0.1628,-0.1643,-0.1673,-0.1695,-0.167,-0.1706,-0.172,-0.1722,-0.171,-0.1705,-0.1707,-0.1708,-0.1688,-0.1688,-0.1688,0,0,-0.1611,-0.1648,-0.1659,-0.1649,-0.1633,-0.1619,-0.1625,-0.1603,-0.1607,-0.1627,-0.1638,-0.1649,-0.1713,-0.1687,-0.1694,-0.1727,-0.1746,-0.179,-0.177,-0.1768,-0.1768,-0.1769,-0.1718,-0.1714,-0.1768,-0.1768,-0.1768,0,-0.1624,-0.1637,-0.1653,-0.1646,-0.1631,-0.1635,-0.1619,-0.1623,-0.1618,-0.1624,-0.1646,-0.1703,-0.1695,-0.1705,-0.1718,-0.1729,-0.1751,-0.175,-0.177,-0.1771,-0.1771,-0.1719,-0.1714,-0.1769,-0.1769,-0.1769,-0.1769,0,-0.1622,-0.1633,-0.1632,-0.1638,-0.1632,-0.1619,-0.1616,-0.1627,-0.165,-0.1657,-0.1706,-0.1698,-0.1717,-0.1734,-0.1737,-0.1753,-0.1775,-0.1794,-0.1753,-0.1773,-0.1718,-0.1712,-0.1771,-0.177,-0.177,-0.177,0,0,-0.1632,-0.1633,-0.1633,-0.1619,-0.1623,-0.1606,-0.1618,-0.1616,-0.1623,-0.1665,-0.1665,-0.1703,-0.1726,-0.1731,-0.1743,-0.1729,-0.1713,-0.178,-0.1779,-0.1718,-0.172,-0.1647,-0.1633,-0.1789,-0.1788,-0.1788,-0.1672,0,-0.1616,-0.16,-0.1609,-0.1587,-0.1564,-0.1574,-0.1583,-0.1594,-0.1622,-0.1633,-0.1648,-0.1679,-0.1723,-0.1734,-0.1737,-0.1739,-0.1709,-0.1742,-0.172,-0.1716,-0.164,-0.1627,-0.1788,-0.1667,-0.1666,-0.1665,-0.1664,0,-0.1594,-0.1582,-0.1564,-0.154,-0.1536,-0.1542,-0.1541,-0.155,-0.1581,-0.1613,-0.1655,-0.1683,-0.167,-0.1701,-0.17,-0.1756,-0.1738,-0.1725,-0.1721,-0.1641,-0.1634,-0.165,-0.1654,-0.1655,-0.1656,-0.1656,-0.1657,0,-0.156,-0.154,-0.1527,-0.1519,-0.1512,-0.1514,-0.1524,-0.1553,-0.1546,-0.16,-0.1606,-0.1651,-0.1646,-0.1671,-0.1665,-0.1703,-0.1658,-0.1674,-0.1574,-0.1567,-0.1659,-0.166,-0.1644,-0.1644,-0.1644,-0.1645,-0.1645,0,-0.1514,-0.1499,-0.1516,-0.1502,-0.1476,-0.1498,-0.1489,-0.1516,-0.1533,-0.1518,-0.1605,-0.1588,-0.1661,-0.1646,-0.165,-0.1598,-0.1638,-0.1552,-0.1534,-0.1667,-0.1671,-0.1653,-0.1655,-0.164,-0.1641,-0.1642,-0.1643,0,-0.1461,-0.1482,-0.1451,-0.1456,-0.1456,-0.1444,-0.1439,-0.1414,-0.1491,-0.1459,-0.1469,-0.1531,-0.1541,-0.157,-0.1562,-0.1541,-0.15,-0.1466,-0.1571,-0.1565,-0.1403,-0.1408,-0.1307,-0.1304,-0.1301,-0.1298,-0.1296,0,-0.1423,-0.1412,-0.1411,-0.1375,-0.1377,-0.1365,-0.1333,-0.1387,-0.1351,-0.1405,-0.1356,-0.1393,-0.1427,-0.1351,-0.1426,-0.1397,-0.1403,-0.1353,-0.1403,-0.1376,-0.137,-0.138,-0.1389,-0.1291,-0.1291,-0.129,-0.1289,0,-0.1333,-0.1363,-0.1335,-0.1272,-0.1235,-0.1182,-0.1154,-0.1122,-0.1169,-0.1238,-0.1214,-0.1226,-0.1232,-0.127,-0.1272,-0.126,-0.1375,-0.1321,-0.1328,-0.1375,-0.1356,-0.1355,-0.1367,-0.1279,-0.128,-0.1281,-0.1282,0,-0.1265,-0.1226,-0.1202,-0.1124,-0.1078,-0.0997,-0.1009,-0.0959,-0.0951,-0.1027,-0.1016,-0.1107,-0.1191,-0.1195,-0.1192,-0.1188,-0.1174,-0.1139,-0.1154,-0.1166,-0.1188,-0.1148,-0.097,0,0,0,0,0,-0.1173,-0.1111,-0.1035,-0.0941,-0.0896,-0.0877,-0.086,-0.0883,-0.0941,-0.0879,-0.0948,-0.0956,-0.0997,-0.1055,-0.1023,-0.1128,-0.1175,-0.1086,-0.114,-0.1222,-0.1234,-0.1281,0,0,0,0,0,0,-0.11,-0.105,-0.0993,-0.0806,-0.0725,-0.0659,-0.0662,-0.0708,-0.0684,-0.0777,-0.0805,-0.089,-0.0945,-0.1,-0.1004,-0.1018,-0.1029,-0.1147,-0.1144,-0.1215,-0.1226,-0.1235,-0.1288,0,0,0,0,0]},{"header":{"parameterUnit":"m.s-1","parameterCategory":2,"la1":30.2991,"la2":30.254,"lo1":-89.0895,"lo2":-89.0444,"dy":0.0017,"dx":0.0017,"nx":28,"ny":28,"refTime":"2025-03-01T03:00:00:Z","depth":"4","parameterNumber":3,"parameterNumberName":"V-component_of_CURRENTS"},"data":[0,0,0,0,0,0,0,0,0,0,0,0,0,0,0,0,0,0,0,0,0,0,0,0,0,0,0,0,0,0,0,0,0,0,0,0,0,0,0,0,0,0,0,0,0,0,0,0,0,0,0,0,0,0,0,0,0,0,-0.0318,-0.0318,0,-0.0317,-0.0318,-0.0318,-0.0303,-0.0302,-0.0302,-0.0302,-0.0267,-0.0266,-0.0266,0,0,0,0,0,0,0,0,0,0,0,0,0,-0.0268,-0.0269,-0.0318,-0.0318,-0.0318,-0.0317,-0.0318,-0.0318,-0.0303,-0.0302,-0.0302,-0.0301,-0.0267,-0.0266,-0.0266,0,0,0,0,0,0,0,0,0,0,0,0,0,-0.0281,-0.0269,-0.0318,-0.031,-0.0309,-0.0317,-0.0318,-0.0318,-0.0303,-0.0302,-0.0302,-0.0301,-0.0267,-0.0267,-0.0266,-0.0274,0,0,-0.0263,-0.0263,0,0,0,0,0,0,0,0,-0.028,-0.0283,-0.0311,-0.031,-0.031,-0.0309,-0.0287,-0.0301,-0.0303,-0.0306,-0.0302,-0.0301,-0.0278,-0.0276,-0.0279,-0.0272,-0.0271,-0.0263,-0.0263,-0.0263,-0.0262,0,0,0,0,0,0,0,-0.028,-0.0283,-0.0318,-0.0311,-0.031,-0.0293,-0.0295,-0.029,-0.0295,-0.0306,-0.0304,-0.0304,-0.0277,-0.028,-0.0278,-0.027,-0.0263,-0.0263,-0.0262,-0.0262,-0.0275,-0.0276,0,0,0,0,0,0,-0.0282,-0.0282,-0.0318,-0.0318,-0.0293,-0.0295,-0.0297,-0.031,-0.0296,-0.0293,-0.0304,-0.0303,-0.0281,-0.0279,-0.0277,-0.031,-0.0263,-0.0262,-0.0261,-0.0274,-0.0275,-0.0276,0,0,0,0,0,0,-0.0281,-0.0285,-0.0318,-0.0299,-0.0301,-0.0297,-0.0312,-0.0311,-0.0317,-0.0295,-0.0292,-0.0313,-0.0281,-0.0278,-0.0282,-0.0307,-0.0261,-0.0261,-0.0273,-0.0274,-0.0275,-0.0361,0,0,0,0,0,0,-0.028,-0.0286,-0.0298,-0.0299,-0.0303,-0.0334,-0.0312,-0.0311,-0.0317,-0.0316,-0.0301,-0.0297,-0.028,-0.0284,-0.0282,-0.0305,-0.026,-0.0272,-0.0274,-0.0275,-0.0357,-0.0365,-0.0371,0,0,0,0,0,-0.0278,-0.0303,-0.0299,-0.0303,-0.032,-0.0335,-0.0336,-0.0329,-0.0319,-0.0331,-0.032,-0.0298,-0.0292,-0.0284,-0.0281,-0.0305,-0.0271,-0.0273,-0.0275,-0.0353,-0.0363,-0.0371,0,0,0,0,0,0,-0.0291,-0.0304,-0.03,-0.0328,-0.0333,-0.0332,-0.0343,-0.0336,-0.0338,-0.0336,-0.0312,-0.0308,-0.032,-0.03,-0.0292,-0.0312,-0.0276,-0.0278,-0.0337,-0.0346,-0.0353,-0.0351,-0.0259,0,0,0,0,0,-0.0299,-0.032,-0.0325,-0.0347,-0.0352,-0.0348,-0.0353,-0.035,-0.0349,-0.035,-0.0338,-0.0326,-0.0326,-0.0325,-0.0317,-0.0332,-0.0284,-0.0343,-0.035,-0.0356,-0.0352,-0.0313,-0.0316,-0.0282,-0.0282,-0.0282,0,0,-0.0309,-0.0319,-0.0331,-0.0351,-0.0354,-0.0375,-0.035,-0.0365,-0.0383,-0.0345,-0.0365,-0.0352,-0.0334,-0.0352,-0.0355,-0.0338,-0.0339,-0.0359,-0.0365,-0.0356,-0.0315,-0.0319,-0.0321,-0.0283,-0.0283,-0.0283,0,0,-0.0342,-0.0351,-0.0378,-0.0388,-0.0398,-0.0399,-0.0406,-0.041,-0.0411,-0.0428,-0.0407,-0.0414,-0.0405,-0.0407,-0.0405,-0.0448,-0.0378,-0.0436,-0.0475,-0.0438,-0.044,-0.0442,-0.0377,-0.0372,-0.0441,-0.0441,-0.0441,0,-0.0352,-0.039,-0.0388,-0.0416,-0.0428,-0.0414,-0.0445,-0.045,-0.0454,-0.0458,-0.0443,-0.044,-0.0438,-0.0457,-0.0475,-0.0467,-0.0411,-0.0447,-0.0447,-0.0448,-0.0448,-0.0381,-0.0375,-0.0445,-0.0445,-0.0445,-0.0444,0,-0.0406,-0.0433,-0.0451,-0.0483,-0.0497,-0.0521,-0.0525,-0.0536,-0.0531,-0.0531,-0.054,-0.053,-0.0525,-0.0531,-0.052,-0.0524,-0.0471,-0.0461,-0.0427,-0.0457,-0.0384,-0.0376,-0.0452,-0.045,-0.0449,-0.0448,0,0,-0.0435,-0.048,-0.0487,-0.051,-0.0534,-0.0552,-0.0581,-0.0603,-0.0619,-0.0613,-0.0629,-0.064,-0.0616,-0.061,-0.0591,-0.0566,-0.0534,-0.0514,-0.051,-0.0451,-0.0413,-0.0388,-0.0375,-0.0511,-0.051,-0.051,-0.0359,0,-0.0477,-0.054,-0.0552,-0.0609,-0.0638,-0.0637,-0.0667,-0.0681,-0.068,-0.069,-0.0672,-0.0679,-0.065,-0.0648,-0.0621,-0.0559,-0.0516,-0.0574,-0.039,-0.0385,-0.0361,-0.0367,-0.0507,-0.0352,-0.035,-0.0348,-0.0347,0,-0.0528,-0.056,-0.0625,-0.0669,-0.0683,-0.0717,-0.0751,-0.0773,-0.0778,-0.0773,-0.0761,-0.0732,-0.0712,-0.068,-0.0566,-0.0592,-0.0507,-0.0447,-0.044,-0.038,-0.0345,-0.0316,-0.0331,-0.0332,-0.0334,-0.0335,-0.0336,0,-0.0554,-0.0613,-0.0667,-0.0684,-0.0732,-0.0762,-0.0787,-0.0804,-0.082,-0.0821,-0.0817,-0.0775,-0.0749,-0.0648,-0.0528,-0.0538,-0.0374,-0.0379,-0.0265,-0.026,-0.0289,-0.0289,-0.0283,-0.0283,-0.0284,-0.0284,-0.0285,0,-0.0596,-0.0638,-0.0686,-0.0718,-0.0778,-0.0797,-0.0851,-0.0864,-0.0878,-0.0886,-0.0857,-0.0829,-0.0735,-0.0631,-0.0522,-0.0357,-0.0362,-0.0261,-0.0225,-0.0327,-0.0333,-0.0282,-0.0284,-0.0278,-0.028,-0.0281,-0.0282,0,-0.062,-0.0654,-0.0716,-0.0774,-0.0798,-0.084,-0.0895,-0.0918,-0.0925,-0.0928,-0.0927,-0.0861,-0.0724,-0.0599,-0.0429,-0.0347,-0.0202,-0.0136,-0.0227,-0.0199,-0.0111,-0.0119,-0.0007,-0.0005,-0.0003,-0.0001,-0.0,0,-0.0639,-0.0675,-0.0754,-0.0787,-0.0821,-0.088,-0.0914,-0.0945,-0.0953,-0.0928,-0.0915,-0.081,-0.0741,-0.0464,-0.0354,-0.0135,-0.011,-0.0033,-0.0104,-0.0109,-0.0084,-0.0095,-0.0105,0.0003,0.0003,0.0003,0.0004,0,-0.0665,-0.0698,-0.0744,-0.0808,-0.0859,-0.0907,-0.0949,-0.0955,-0.0962,-0.0976,-0.0872,-0.0756,-0.0597,-0.0433,-0.0259,-0.011,-0.0096,-0.0015,-0.0018,-0.0085,-0.0096,-0.0076,-0.0088,0.001,0.0009,0.0008,0.0008,0,-0.0676,-0.0709,-0.0764,-0.0815,-0.0873,-0.0898,-0.093,-0.0913,-0.0921,-0.0884,-0.0842,-0.0695,-0.0626,-0.0414,-0.0255,-0.0112,-0.0094,-0.0065,-0.0065,-0.0071,-0.0154,-0.0182,-0.0062,0,0,0,0,0,-0.0677,-0.0709,-0.0759,-0.0813,-0.0862,-0.089,-0.0929,-0.0945,-0.095,-0.0866,-0.0852,-0.0697,-0.0476,-0.0392,-0.0239,-0.024,-0.0082,-0.0061,-0.0053,0.0043,0.0036,-0.0051,0,0,0,0,0,0,-0.0678,-0.0732,-0.0751,-0.0786,-0.0812,-0.0862,-0.0879,-0.0887,-0.0834,-0.0822,-0.0696,-0.0664,-0.0445,-0.055,-0.0233,-0.0197,-0.0173,0.003,0.0033,0.0047,0.004,0.0035,-0.0057,0,0,0,0,0]}]]